Tracking 25963 objects as of 12-Aug-2022
HD Live streaming from Space Station
objects crossing your sky now

COSMOS 2523

Track COSMOS 2523 now!
10-day predictions


NORAD ID: 42986
Int'l Code: 2017-037E
Perigee: 559.9 km
Apogee: 666.6 km
Inclination: 97.7 °
Period: 96.8 minutes
Semi major axis: 6984 km
RCS: Unknown
Launch date: June 23, 2017
Source: Commonwealth of Independent States (former USSR) (CIS)
Launch site: PLESETSK MISSILE AND SPACE COMPLEX (PKMTR)
aabbcc
Your satellite tracking list
Your tracking list is empty




NASA's NSSDC Master Catalog

Two Line Element Set (TLE):
1 42986U 17037E   22223.54241013  .00000608  00000-0  69934-4 0  9997
2 42986  97.6520 273.7643 0076409 231.6510 127.7821 14.87383622259486
Source of the keplerian elements: AFSPC